Regional Weather Roundup
Issued by NWS

Home | Current Version | Previous Version | Graphics & Text | Print | Product List | Glossary On
Versions: 1 2 3 4 5 6 7 8 9 10 11 12 13 14 15 16 17 18 19 20 21 22 23 24 25 26 27 28 29 30 31 32 33 34 35 36 37 38 39 40 41 42 43 44 45 46 47 48 49 50
000
ASUS45 KTFX 011804
RWRMT
MONTANA HOURLY WEATHER ROUNDUP
NATIONAL WEATHER SERVICE GREAT FALLS MT
1204 PM MDT FRI AUG 1 2014

NOTE: "FAIR" INDICATES FEW OR NO CLOUDS BELOW 12000 FEET WITH NO
SIGNIFICANT WEATHER AND/OR OBSTRUCTIONS TO VISIBILITY.

* THESE STATIONS ARE NOT UNDER NWS QUALITY CONTROL. THEY DO NOT
   REPORT WEATHER SUCH AS PRECIPITATION OR FOG.

MTZ001>007-043-011900-
WEST OF THE DIVIDE
CITY           SKY/WX    TMP DP  RH WIND       PRES   REMARKS
KALISPELL      PTSUNNY   82  52  35 N13       30.12F
MISSOULA       SUNNY     82  45  27 CALM      30.14F
BUTTE          PTCLDY    79  39  24 E5        30.28F
MULLAN PASS    CLOUDY    75  39  27 CALM      30.30F
* ESSEX        N/A      N/A N/A N/A N/A        N/A
* LINCOLN      N/A       73  49  43 SE3        N/A
* LOOKOUT PASS N/A       76  45  33 S3         N/A
* POLSON       N/A       81  51  35 NW2        N/A
* RONAN APT    PTSUNNY   79  54  42 N/A        N/A
* SEELEY LAKE  N/A       81  45  28 S3G8       N/A
* THOMP F APT  PTSUNNY   76  46  35 W4G10      N/A
$$

MTZ008-052>055-011900-
SOUTHWEST MONTANA
CITY           SKY/WX    TMP DP  RH WIND       PRES   REMARKS
BOZEMAN        PTCLDY    77  41  28 VRB3      30.23F
DILLON         PTCLDY    75  46  36 N8        30.26S
W YELLOWSTONE  SUNNY     72  39  30 CALM      30.35F
* THREE FORKS  PTCLDY    79  50  36 N/A        N/A
* BOULDER HILL N/A       75  40  28 NE11       N/A
* MONIDA PASS  N/A       73  41  32 NE7G12     N/A
* RAYNOLDS PAS N/A       75  40  28 NE1G6      N/A
* WHITEHALL    N/A       77  47  35 SE4        N/A
* WISE RIVER   N/A       75  47  37 NW3        N/A
$$

MTZ009>010-012-014-046-048-049-054-011900-
EAST SLOPES AND CENTRAL MONTANA
CITY           SKY/WX    TMP DP  RH WIND       PRES   REMARKS
CUT BANK       PTCLDY    79  55  44 NE10      30.24S
GREAT FALLS    PTSUNNY   79  54  42 VRB5      30.21S
HELENA         PTCLDY    82  43  25 N7        30.20F
MALMSTROM AFB  PTSUNNY   77  52  42 W6        30.21F
* CONRAD       PTCLDY    81  61  51 N/A        N/A   HI  82
* DEARBORN     N/A       81  49  33 N6         N/A
* EAST GLACIER N/A       69  56  63 E9G15      N/A
* MONARCH      N/A       77  45  32 VRB11      N/A
* PENDROY      N/A       75  60  60 N11G17     N/A
* ROGERS PASS  N/A       76  46  35 S4G11      N/A
* SAINT MARY   N/A       71  58  64 NE7G13     N/A
* SWEET GRASS  N/A       74  60  62 NE14G21    N/A
$$

MTZ011-013-016-021-035-040-045-047-050-051-011900-
NORTH CENTRAL MONTANA
CITY           SKY/WX    TMP DP  RH WIND       PRES   REMARKS
HAVRE          SUNNY     86  54  33 N12G18    30.14F
LEWISTOWN      PTSUNNY   82  46  28 NW7       30.22F
* CHESTER      N/A       83  49  31 NE6G16     N/A
* DENTON       N/A       83  51  33 NE6        N/A
* GEYSER       N/A       82  48  31 N14        N/A
* JUDITH GAP   N/A       79  52  39 N11G17     N/A
* LOMA         N/A       86  47  26 N5         N/A
$$

MTZ017>020-022>027-061-062-011900-
NORTHEAST MONTANA
CITY           SKY/WX    TMP DP  RH WIND       PRES   REMARKS
GLASGOW        SUNNY     84  54  36 VRB6      30.09F
GLENDIVE       SUNNY     79  55  44 NE14      30.10S
JORDAN         SUNNY     88  52  29 N10       30.10S
SIDNEY         PTCLDY    82  57  43 E13       30.08S HI  82
WOLF POINT     SUNNY     86  54  33 E12G17    30.09S
* CIRCLE       N/A       82  58  44 NE7G14     N/A   HI  82
* NAVAJO       N/A       75  59  58 SW4        N/A
$$

MTZ028>042-056>058-011900-
SOUTHCENTRAL AND SOUTHEAST MONTANA
CITY           SKY/WX    TMP DP  RH WIND       PRES   REMARKS
BAKER          SUNNY     88  46  23 NE6       30.09R
BILLINGS       PTSUNNY   84  48  29 S7        30.16F
LIVINGSTON     PTCLDY    82  41  23 CALM      30.22F
MILES CITY     SUNNY     91  48  23 N14       30.07S
* LAUREL APT   PTCLDY    84  46  26 SE5        N/A
* ROUNDUP APT  PTSUNNY   88  41  19 N8         N/A
* HYSHAM       N/A       88  49  26 NW4        N/A
* REED POINT   N/A       88  51  28 W6         N/A
* ROSCOE HILL  N/A       80  42  26 N6G13      N/A
$$

REGIONAL REPORTS...DAKOTAS
CITY           SKY/WX    TMP DP  RH WIND       PRES   REMARKS
WILLISTON      CLOUDY    75  61  62 NE6       30.11R
DICKINSON      CLOUDY    79  61  54 NE10      30.08R
CROSBY         SUNNY     75  66  74 S9        30.12R
TIOGA          CLOUDY    68  68 100 SE8       30.15R
WATFORD CITY   LGT RAIN  73  61  66 E9        30.10S
BISMARCK       SUNNY     86  57  37 S10       30.07F
GRAND FORKS    PTCLDY    81  59  47 NE7       30.07F HI  81
FARGO          SUNNY     82  61  49 N10       30.07F HI  83
BUFFALO SD     PTCLDY    84  52  33 VRB3      30.02S
RAPID CITY     TSTM      86  48  27 E6        30.09F
$$

REGIONAL REPORTS...WYOMING/IDAHO/WASHINGTON
CITY           SKY/WX    TMP DP  RH WIND       PRES   REMARKS
GILLETTE       PTCLDY    88  41  19 VRB6      30.18S
SHERIDAN       PTCLDY    88  39  18 NW9G16    30.17S
CODY           PTCLDY    79  43  28 NE7       30.25F
YELLOWSTONE LA SUNNY     70  36  29 VRB3      30.45F
SALMON         PTCLDY    72  52  49 CALM      30.16F
MULLAN PASS    CLOUDY    75  39  27 CALM      30.30S
SAND POINT     PTSUNNY   77  46  33 NE9       30.07F
SPOKANE        CLOUDY    77  46  33 NE6       30.07S

$$



USA.gov is the U.S. government's official web portal to all federal, state and local government web resources and services.